Hourly Data Report for June 07, 2012

All times are specified in Local Standard Time (LST). Add 1 hour to adjust for Daylight Saving Time where and when it is observed.

VICTORIA HARTLAND CS
BRITISH COLUMBIA

48°32'01.800" N
123°27'32.900" W
154.10 m
1018FJ5

Download Data

Hourly Data (June 2012)
Hourly Data Report for June 7, 2012
Temp Definition
°C
Dew Point Temp Definition
°C
Rel Hum Definition
%
Wind Dir Definition
10's deg

Wind Spd Definition
km/h
Visibility Definition
km
Stn Press Definition
kPa
Hmdx Definition


Wind Chill Definition


Weather Definition


TIME
00:00 8.9 4.2 72 33 9   99.62     LegendNANA
01:00 8.9 4.5 74 32 7   99.54     LegendNANA
02:00 9.1 4.9 75 34 7   99.44     LegendNANA
03:00 9.1 4.9 75 33 9   99.31     LegendNANA
04:00 8.5 5.7 83 31 6   99.24     LegendNANA
05:00 8.2 6.1 87 34 2   99.15     LegendNANA
06:00 8.1 6.3 88 36 2   99.09     LegendNANA
07:00 8.2 6.6 90 15 4   99.06     LegendNANA
08:00 8.4 7.0 91 15 6   99.03     LegendNANA
09:00 8.9 7.5 91 16 13   99.00     LegendNANA
10:00 9.3 7.9 91 16 9   98.98     LegendNANA
11:00 9.9 8.5 91 16 11   98.99     LegendNANA
12:00 10.7 9.2 90 18 9   99.05     LegendNANA
13:00 12.1 8.9 81 26 11   99.13     LegendNANA
14:00 13.7 7.9 68 27 7   99.23     LegendNANA
15:00 12.1 4.5 60 29 7   99.29     LegendNANA
16:00 12.9 3.9 54 25 7   99.36     LegendNANA
17:00 12.0 4.0 58 26 13   99.43     LegendNANA
18:00 10.7 3.5 61 28 20   99.43     LegendNANA
19:00 10.8 1.9 54 27 9   99.51     LegendNANA
20:00 8.8 6.1 83 29 2   99.54     LegendNANA
21:00 8.1 6.2 88 24 2   99.60     LegendNANA
22:00 7.8 6.3 90 21 2   99.60     LegendNANA
23:00 7.8 6.4 91 21 2   99.57     LegendNANA

Notes on Data Quality.

Legend

  • E = Estimated
  • M = Missing
  • NA = Not Available
  • ‡ = Partner data that is not subject to review by the National Climate Archives
Date modified: